N0JVW-13 Weather Reports


Display with metric or nautical units.
time (UTC)temp
F
wind
direction
speed
MPH
gust
MPH
rain 1hr
in
rain 24hr
in
rain mn
in
humidity
%
barometer
mb
20260903111034 76 152 0.0 0.0 0.00 0.00 0.00 69 1011.1
20260903110508 76 152 0.0 0.0 0.00 0.00 0.00 69 1011.1
20260903110051 76 152 0.0 0.0 0.00 0.00 0.00 69 1011.1
20260903105530 76 151 0.0 0.0 0.00 0.00 0.00 70 1011.1
20260903105010 76 152 0.0 0.0 0.00 0.00 0.00 70 1011.1
20260903104554 76 136 0.0 0.0 0.00 0.00 0.00 70 1011.0
20260903104035 76 136 0.0 0.0 0.00 0.00 0.00 71 1011.0
20260903103513 76 136 0.0 0.0 0.00 0.00 0.00 71 1010.8
20260903103057 76 136 0.0 0.0 0.00 0.00 0.00 71 1010.8
20260903102537 76 136 0.0 0.0 0.00 0.00 0.00 71 1010.8
20260903102020 76 123 0.0 0.0 0.00 0.00 0.00 71 1010.7
20260903101602 77 123 0.0 0.0 0.00 0.00 0.00 71 1010.7
20260903101037 77 141 0.0 0.0 0.00 0.00 0.00 71 1010.7
20260903100518 77 136 0.0 0.0 0.00 0.00 0.00 71 1010.7
20260903095539 77 155 0.0 0.0 0.00 0.00 0.00 72 1010.7
20260903095019 77 147 0.0 0.0 0.00 0.00 0.00 72 1010.7
20260903094652 77 143 0.0 0.0 0.00 0.00 0.00 72 1010.7
20260903094042 77 135 0.0 0.0 0.00 0.00 0.00 72 1010.8
20260903093522 77 134 0.0 0.0 0.00 0.00 0.00 72 1010.8
20260903093001 77 134 0.0 0.0 0.00 0.00 0.00 72 1010.7
20260903092547 77 134 0.0 0.0 0.00 0.00 0.00 72 1010.7
20260903092025 77 131 0.0 0.0 0.00 0.00 0.00 72 1010.7
20260903091505 77 134 0.0 0.0 0.00 0.00 0.00 72 1010.7
20260903091047 77 134 0.0 0.0 0.00 0.00 0.00 72 1010.7
20260903090531 77 134 0.0 0.0 0.00 0.00 0.00 72 1010.7
20260903090007 77 134 0.0 0.0 0.00 0.00 0.00 72 1010.8
20260903085549 77 134 0.0 0.0 0.00 0.00 0.00 72 1010.7
20260903085029 77 134 0.0 0.0 0.00 0.00 0.00 72 1010.7
20260903084523 77 134 0.0 0.0 0.00 0.00 0.00 71 1010.6
20260903084052 77 134 0.0 0.0 0.00 0.00 0.00 71 1010.6
20260903083532 78 134 0.0 0.0 0.00 0.00 0.00 71 1010.7
20260903083019 78 134 0.0 0.0 0.00 0.00 0.00 71 1010.7
20260903082554 78 134 0.0 0.0 0.00 0.00 0.00 71 1010.6
20260903082034 78 134 0.0 0.0 0.00 0.00 0.00 71 1010.6
20260903081514 78 134 0.0 0.0 0.00 0.00 0.00 71 1010.6
20260903081057 78 134 0.0 0.0 0.00 0.00 0.00 71 1010.5
20260903080537 78 134 0.0 0.0 0.00 0.00 0.00 70 1010.6
20260903080035 79 148 0.0 0.0 0.00 0.00 0.00 70 1010.6
20260903075602 79 148 0.0 0.0 0.00 0.00 0.00 70 1010.5
20260903075039 79 148 0.0 0.0 0.00 0.00 0.00 69 1010.5
20260903074519 79 148 0.0 0.0 0.00 0.00 0.00 69 1010.5
20260903074106 79 148 0.0 0.0 0.00 0.00 0.00 68 1010.5
20260903073545 79 148 0.0 0.0 0.00 0.00 0.00 68 1010.5
20260903073024 80 153 0.0 0.0 0.00 0.00 0.00 68 1010.5
20260903072501 80 153 0.0 0.0 0.00 0.00 0.00 67 1010.5
20260903072046 80 153 0.0 0.0 0.00 0.00 0.00 67 1010.5
20260903071525 80 153 0.0 0.0 0.00 0.00 0.00 67 1010.5
20260903071007 80 153 0.0 0.0 0.00 0.00 0.00 67 1010.6
20260903070550 80 153 0.0 0.0 0.00 0.00 0.00 66 1010.5
20260903070026 81 153 0.0 0.0 0.00 0.00 0.00 66 1010.6
20260903065506 81 153 0.0 0.0 0.00 0.00 0.00 65 1010.7
20260903065049 81 153 0.0 0.0 0.00 0.00 0.00 65 1010.6
20260903064529 81 153 0.0 0.0 0.00 0.00 0.00 65 1010.6
20260903064008 81 153 0.0 0.0 0.00 0.00 0.00 65 1010.5
20260903063551 81 153 0.0 0.0 0.00 0.00 0.00 65 1010.5
20260903063031 81 153 0.0 0.0 0.00 0.00 0.00 64 1010.5
20260903062511 81 153 0.0 0.0 0.00 0.00 0.00 64 1010.6
20260903062055 81 153 0.0 0.0 0.00 0.00 0.00 64 1010.5
20260903061533 81 153 0.0 0.0 0.00 0.00 0.00 64 1010.5
20260903061016 81 153 0.0 0.0 0.00 0.00 0.00 64 1010.5
20260903060556 81 153 0.0 0.0 0.00 0.00 0.00 64 1010.5
20260903060037 82 153 0.0 0.0 0.00 0.00 0.00 64 1010.5
20260903055517 82 153 0.0 0.0 0.00 0.00 0.00 64 1010.5
20260903055056 82 153 0.0 0.0 0.00 0.00 0.00 64 1010.5
20260903054536 82 153 0.0 0.0 0.00 0.00 0.00 64 1010.5
20260903054015 82 153 0.0 0.0 0.00 0.00 0.00 64 1010.5
20260903053602 82 153 0.0 0.0 0.00 0.00 0.00 64 1010.5
20260903053040 82 153 0.0 0.0 0.00 0.00 0.00 63 1010.5
20260903052518 82 153 0.0 0.0 0.00 0.00 0.00 63 1010.5
20260903052101 82 153 0.0 0.0 0.00 0.00 0.00 63 1010.5
20260903051546 82 153 0.0 0.0 0.00 0.00 0.00 63 1010.5
20260903051020 82 153 0.0 0.0 0.00 0.00 0.00 63 1010.5
20260903050603 82 153 0.0 0.0 0.00 0.00 0.00 63 1010.5
20260903050043 82 153 0.0 0.0 0.00 0.00 0.00 63 1010.5
20260903045524 83 153 0.0 0.0 0.00 0.00 0.00 63 1010.5
20260903045003 83 153 0.0 0.0 0.00 0.00 0.00 62 1010.5
20260903044547 83 153 0.0 0.0 0.00 0.00 0.00 62 1010.4
20260903044026 83 153 0.0 0.0 0.00 0.00 0.00 62 1010.5
20260903043506 83 153 0.0 0.0 0.00 0.00 0.00 62 1010.5
20260903043048 83 153 0.0 0.0 0.00 0.00 0.00 62 1010.5
20260903042533 83 153 0.0 0.0 0.00 0.00 0.00 62 1010.5
20260903042009 83 153 0.0 0.0 0.00 0.00 0.00 62 1010.4
20260903041607 83 153 0.0 0.0 0.00 0.00 0.00 61 1010.5
20260903041033 83 153 0.0 0.0 0.00 0.00 0.00 61 1010.5
20260903040510 83 153 0.0 0.0 0.00 0.00 0.00 61 1010.6
20260903040108 84 153 0.0 0.0 0.00 0.00 0.00 61 1010.7
20260903035537 84 153 0.0 0.0 0.00 0.00 0.00 61 1010.6
20260903035012 84 153 0.0 0.0 0.00 0.00 0.00 60 1010.6
20260903034559 84 153 0.0 0.0 0.00 0.00 0.00 60 1010.6
20260903034036 84 153 0.0 0.0 0.00 0.00 0.00 60 1010.6
20260903033514 84 153 0.0 0.0 0.00 0.00 0.00 60 1010.6
20260903033058 84 153 0.0 0.0 0.00 0.00 0.00 60 1010.6
20260903032537 84 153 0.0 0.0 0.00 0.00 0.00 59 1010.6
20260903032017 85 153 0.0 0.0 0.00 0.00 0.00 59 1010.6
20260903031602 85 153 0.0 0.0 0.00 0.00 0.00 59 1010.5
20260903031043 85 153 0.0 0.0 0.00 0.00 0.00 59 1010.5
20260903030520 85 153 0.0 0.0 0.00 0.00 0.00 59 1010.6
20260903030106 85 153 0.0 0.0 0.00 0.00 0.00 59 1010.6
20260903025543 85 153 0.0 0.0 0.00 0.00 0.00 59 1010.6
20260903025021 85 153 0.0 0.0 0.00 0.00 0.00 58 1010.5
20260903024502 85 153 0.0 0.0 0.00 0.00 0.00 58 1010.6
20260903024044 85 153 0.0 0.0 0.00 0.00 0.00 58 1010.5
20260903023524 85 153 0.0 0.0 0.00 0.00 0.00 57 1010.4
20260903023006 85 153 0.0 0.0 0.00 0.00 0.00 57 1010.5
20260903022550 86 153 0.0 0.0 0.00 0.00 0.00 58 1010.5
20260903022026 86 153 0.0 0.0 0.00 0.00 0.00 57 1010.4
20260903021507 86 153 0.0 0.0 0.00 0.00 0.00 57 1010.3
20260903021051 86 153 0.0 0.0 0.00 0.00 0.00 57 1010.3
20260903020530 86 153 0.0 0.0 0.00 0.00 0.00 56 1010.3
20260903020010 86 153 0.0 0.0 0.00 0.00 0.00 56 1010.2
20260903015555 87 153 0.0 0.0 0.00 0.00 0.00 56 1010.1
20260903015034 87 153 0.0 0.0 0.00 0.00 0.00 56 1010.0
20260903014512 87 153 0.0 0.0 0.00 0.00 0.00 56 1009.9
20260903014056 87 153 0.0 0.0 0.00 0.00 0.00 56 1009.8
20260903013536 87 153 0.0 0.0 0.00 0.00 0.00 57 1009.8
20260903013015 87 153 0.0 0.0 0.00 0.00 0.00 56 1009.8
20260903012559 87 153 0.0 0.0 0.00 0.00 0.00 56 1009.7
20260903012038 88 153 0.0 0.0 0.00 0.00 0.00 56 1009.7
20260903011518 88 153 0.0 0.0 0.00 0.00 0.00 55 1009.6
20260903011103 88 153 0.0 0.0 0.00 0.00 0.00 55 1009.6
20260903010540 89 153 0.0 0.0 0.00 0.00 0.00 54 1009.6
20260903010019 89 153 0.0 0.0 0.00 0.00 0.00 53 1009.6
20260903005605 90 153 0.0 0.0 0.00 0.00 0.00 53 1009.6
20260903005045 90 153 0.0 0.0 0.00 0.00 0.00 53 1009.5
20260903004521 90 153 0.0 0.0 0.00 0.00 0.00 52 1009.6
20260903004005 90 153 0.0 0.0 0.00 0.00 0.00 52 1009.5
20260903003544 91 153 0.0 0.0 0.00 0.00 0.00 52 1009.5
20260903003026 91 153 0.0 0.0 0.00 0.00 0.00 51 1009.5
20260903002502 91 153 0.0 0.0 0.00 0.00 0.00 51 1009.6
20260903002045 91 153 0.0 0.0 0.00 0.00 0.00 50 1009.6
20260903001540 92 153 0.0 0.0 0.00 0.00 0.00 50 1009.6
20260903001004 92 153 0.0 0.0 0.00 0.00 0.00 50 1009.7
20260903000547 92 153 0.0 0.0 0.00 0.00 0.00 49 1009.6
20260903000027 92 153 0.0 0.0 0.00 0.00 0.00 49 1009.6
20260902235507 93 153 0.0 1.0 0.00 0.00 0.00 49 1009.6
20260902235049 93 156 0.0 1.0 0.00 0.00 0.00 49 1009.7
20260902234532 93 120 0.0 1.0 0.00 0.00 0.00 48 1009.6
20260902234009 93 154 0.0 1.0 0.00 0.00 0.00 48 1009.7
20260902233554 93 154 0.0 0.0 0.00 0.00 0.00 48 1009.7
20260902233029 93 154 0.0 0.0 0.00 0.00 0.00 47 1009.7
20260902232508 94 154 0.0 0.0 0.00 0.00 0.00 47 1009.7
20260902232052 94 154 0.0 1.0 0.00 0.00 0.00 47 1009.7
20260902231532 94 154 0.0 1.0 0.00 0.00 0.00 46 1009.7
20260902231011 94 131 0.0 2.0 0.00 0.00 0.00 45 1009.7
20260902230558 94 131 0.0 2.0 0.00 0.00 0.00 45 1009.7
20260902230035 94 110 0.0 3.0 0.00 0.00 0.00 45 1009.7
20260902225514 94 143 0.0 3.0 0.00 0.00 0.00 45 1009.8
20260902225058 94 163 0.0 0.0 0.00 0.00 0.00 45 1009.8
20260902224545 94 153 0.0 2.0 0.00 0.00 0.00 46 1009.8
20260902224017 94 127 0.0 2.0 0.00 0.00 0.00 46 1009.7
20260902223601 94 176 0.0 2.0 0.00 0.00 0.00 44 1009.8
20260902223040 95 148 0.0 3.0 0.00 0.00 0.00 44 1009.8
20260902222521 95 160 1.0 3.0 0.00 0.00 0.00 44 1009.8
20260902222101 95 150 0.0 3.0 0.00 0.00 0.00 45 1009.7
20260902221547 95 166 0.0 4.0 0.00 0.00 0.00 44 1009.7
20260902221020 95 158 0.0 1.0 0.00 0.00 0.00 45 1009.7
20260902220604 95 97 0.0 1.0 0.00 0.00 0.00 44 1009.7
20260902220052 95 97 0.0 2.0 0.00 0.00 0.00 44 1009.8
20260902215524 95 167 0.0 2.0 0.00 0.00 0.00 44 1009.9
20260902215003 95 160 0.0 3.0 0.00 0.00 0.00 43 1009.9
20260902214545 96 114 0.0 4.0 0.00 0.00 0.00 42 1009.9
20260902214025 96 170 1.0 4.0 0.00 0.00 0.00 43 1009.9
20260902213504 96 130 1.0 4.0 0.00 0.00 0.00 42 1010.0
20260902213050 96 160 1.0 4.0 0.00 0.00 0.00 43 1010.0
20260902212527 96 119 0.0 3.0 0.00 0.00 0.00 44 1010.0
20260902212005 96 133 0.0 3.0 0.00 0.00 0.00 42 1010.2
20260902211550 96 134 0.0 3.0 0.00 0.00 0.00 43 1010.3
20260902211029 96 133 0.0 5.0 0.00 0.00 0.00 43 1010.3
20260902210508 96 160 0.0 5.0 0.00 0.00 0.00 44 1010.4
20260902210107 96 165 1.0 3.0 0.00 0.00 0.00 44 1010.3
20260902205531 95 143 0.0 2.0 0.00 0.00 0.00 45 1010.5
20260902205011 95 198 0.0 1.0 0.00 0.00 0.00 46 1010.6
20260902204553 95 163 0.0 1.0 0.00 0.00 0.00 45 1010.7
20260902204033 95 162 0.0 4.0 0.00 0.00 0.00 44 1010.7
20260902203512 96 165 0.0 4.0 0.00 0.00 0.00 44 1010.8
20260902203100 96 127 0.0 3.0 0.00 0.00 0.00 44 1010.8
20260902202536 96 138 0.0 5.0 0.00 0.00 0.00 44 1010.8
20260902202017 95 169 2.0 5.0 0.00 0.00 0.00 45 1010.8
20260902201605 95 150 0.0 3.0 0.00 0.00 0.00 45 1010.8
20260902201041 95 150 0.0 2.0 0.00 0.00 0.00 44 1010.9
20260902200520 96 139 0.0 2.0 0.00 0.00 0.00 43 1010.9
20260902200111 96 139 0.0 4.0 0.00 0.00 0.00 42 1010.9
20260902195541 97 152 1.0 5.0 0.00 0.00 0.00 42 1011.1
20260902195019 97 152 0.0 5.0 0.00 0.00 0.00 43 1011.1
20260902194603 97 124 0.0 2.0 0.00 0.00 0.00 44 1011.1
20260902194045 97 117 0.0 3.0 0.00 0.00 0.00 44 1011.3
20260902193522 97 118 0.0 3.0 0.00 0.00 0.00 44 1011.2
20260902193002 97 134 0.0 5.0 0.00 0.00 0.00 44 1011.4
20260902192545 96 205 2.0 5.0 0.00 0.00 0.00 44 1011.4
20260902192024 96 163 0.0 4.0 0.00 0.00 0.00 44 1011.5
20260902191504 96 156 0.0 4.0 0.00 0.00 0.00 44 1011.6
20260902191048 96 135 1.0 4.0 0.00 0.00 0.00 44 1011.6
20260902190528 96 124 0.0 4.0 0.00 0.00 0.00 46 1011.8
20260902190009 96 160 1.0 3.0 0.00 0.00 0.00 46 1011.8
20260902185549 96 161 0.0 4.0 0.00 0.00 0.00 46 1011.8
20260902185033 96 148 0.0 4.0 0.00 0.00 0.00 46 1011.9
20260902184510 95 150 2.0 4.0 0.00 0.00 0.00 46 1011.9
20260902184052 95 134 1.0 4.0 0.00 0.00 0.00 46 1012.0
20260902183532 95 229 0.0 3.0 0.00 0.00 0.00 48 1012.2
20260902183013 95 172 0.0 3.0 0.00 0.00 0.00 48 1012.3
20260902182554 95 214 0.0 3.0 0.00 0.00 0.00 46 1012.3
20260902182037 95 161 0.0 3.0 0.00 0.00 0.00 49 1012.4
20260902181513 95 101 0.0 1.0 0.00 0.00 0.00 49 1012.3
20260902181057 94 101 0.0 1.0 0.00 0.00 0.00 51 1012.3
20260902180537 94 101 0.0 2.0 0.00 0.00 0.00 50 1012.5
20260902180025 94 101 0.0 3.0 0.00 0.00 0.00 49 1012.5
20260902175602 93 101 0.0 3.0 0.00 0.00 0.00 50 1012.6
20260902175040 93 207 0.0 2.0 0.00 0.00 0.00 50 1012.8
20260902174520 93 215 0.0 1.0 0.00 0.00 0.00 50 1012.7
20260902174103 93 215 0.0 1.0 0.00 0.00 0.00 51 1012.8
20260902173543 93 215 0.0 1.0 0.00 0.00 0.00 51 1012.9
20260902173032 92 215 0.0 1.0 0.00 0.00 0.00 52 1012.9
20260902172504 92 215 0.0 1.0 0.00 0.00 0.00 52 1013.0
20260902172045 92 164 0.0 1.0 0.00 0.00 0.00 53 1013.1
20260902171521 92 193 0.0 3.0 0.00 0.00 0.00 53 1013.2
20260902171104 92 193 0.0 3.0 0.00 0.00 0.00 54 1013.2
20260902170545 92 134 0.0 3.0 0.00 0.00 0.00 55 1013.2
20260902170023 91 160 0.0 1.0 0.00 0.00 0.00 55 1013.3
20260902165504 91 148 0.0 5.0 0.00 0.00 0.00 55 1013.4
20260902165049 91 141 1.0 5.0 0.00 0.00 0.00 55 1013.4
20260902164529 91 115 0.0 3.0 0.00 0.00 0.00 56 1013.3
20260902164006 90 178 0.0 3.0 0.00 0.00 0.00 57 1013.5
20260902163552 90 207 0.0 3.0 0.00 0.00 0.00 58 1013.4
20260902163031 90 280 0.0 1.0 0.00 0.00 0.00 56 1013.5
20260902162509 90 281 0.0 3.0 0.00 0.00 0.00 58 1013.5
20260902162054 90 280 0.0 3.0 0.00 0.00 0.00 57 1013.5
20260902161537 89 280 0.0 2.0 0.00 0.00 0.00 55 1013.4
20260902161012 89 279 0.0 2.0 0.00 0.00 0.00 57 1013.5
20260902160555 89 279 0.0 2.0 0.00 0.00 0.00 57 1013.4
20260902160041 89 291 0.0 3.0 0.00 0.00 0.00 57 1013.5
20260902155515 89 291 0.0 2.0 0.00 0.00 0.00 58 1013.5
20260902155058 88 291 0.0 3.0 0.00 0.00 0.00 58 1013.5
20260902154538 88 291 0.0 3.0 0.00 0.00 0.00 58 1013.5
20260902154022 88 235 0.0 3.0 0.00 0.00 0.00 59 1013.4
20260902153600 88 161 0.0 3.0 0.00 0.00 0.00 59 1013.4
20260902153040 87 126 0.0 2.0 0.00 0.00 0.00 62 1013.4
20260902152520 87 306 0.0 2.0 0.00 0.00 0.00 62 1013.4
20260902152103 87 306 0.0 2.0 0.00 0.00 0.00 61 1013.4
20260902151542 86 92 0.0 1.0 0.00 0.00 0.00 62 1013.4
20260902151021 86 92 0.0 3.0 0.00 0.00 0.00 64 1013.4
20260902150501 85 256 0.0 1.0 0.00 0.00 0.00 64 1013.4
20260902150045 85 256 0.0 1.0 0.00 0.00 0.00 64 1013.4
20260902145524 85 278 0.0 2.0 0.00 0.00 0.00 64 1013.4
20260902145006 84 278 0.0 2.0 0.00 0.00 0.00 65 1013.5
20260902144547 84 158 0.0 1.0 0.00 0.00 0.00 66 1013.4
20260902144028 83 127 0.0 1.0 0.00 0.00 0.00 68 1013.5
20260902143506 83 212 0.0 1.0 0.00 0.00 0.00 67 1013.4
20260902143050 83 250 0.0 1.0 0.00 0.00 0.00 68 1013.5
20260902142530 82 110 0.0 1.0 0.00 0.00 0.00 70 1013.6
20260902142009 82 115 0.0 2.0 0.00 0.00 0.00 70 1013.6
20260902141600 81 115 0.0 2.0 0.00 0.00 0.00 70 1013.6
20260902141033 81 122 0.0 1.0 0.00 0.00 0.00 70 1013.6
20260902140511 80 120 0.0 1.0 0.00 0.00 0.00 71 1013.6
20260902140058 80 120 0.0 1.0 0.00 0.00 0.00 71 1013.5
20260902135534 80 148 0.0 1.0 0.00 0.00 0.00 71 1013.5
20260902135015 79 133 0.0 1.0 0.00 0.00 0.00 71 1013.5
20260902134612 79 131 0.0 1.0 0.00 0.00 0.00 71 1013.6
20260902134037 78 160 0.0 1.0 0.00 0.00 0.00 71 1013.6
20260902133521 78 106 0.0 1.0 0.00 0.00 0.00 71 1013.6
20260902133100 78 106 0.0 1.0 0.00 0.00 0.00 71 1013.5
20260902132538 77 168 0.0 2.0 0.00 0.00 0.00 70 1013.5
20260902132018 77 123 0.0 2.0 0.00 0.00 0.00 70 1013.5
20260902131602 77 167 0.0 2.0 0.00 0.00 0.00 70 1013.5
20260902131044 76 159 0.0 2.0 0.00 0.00 0.00 69 1013.5
20260902130515 76 158 0.0 1.0 0.00 0.00 0.00 69 1013.5
20260902125537 76 146 0.0 2.0 0.00 0.00 0.00 69 1013.4
20260902125018 76 160 0.0 2.0 0.00 0.00 0.00 68 1013.4
20260902124600 75 164 0.0 2.0 0.00 0.00 0.00 68 1013.4
20260902124041 75 156 0.0 1.0 0.00 0.00 0.00 68 1013.3
20260902123519 75 155 0.0 1.0 0.00 0.00 0.00 68 1013.4
20260902123103 75 131 0.0 0.0 0.00 0.00 0.00 67 1013.3
20260902122542 75 152 0.0 0.0 0.00 0.00 0.00 67 1013.2
20260902122021 75 142 0.0 0.0 0.00 0.00 0.00 66 1013.2
20260902121604 75 129 0.0 0.0 0.00 0.00 0.00 67 1013.1
20260902121043 75 128 0.0 0.0 0.00 0.00 0.00 68 1013.1
20260902120523 75 128 0.0 0.0 0.00 0.00 0.00 68 1013.0
20260902120002 75 152 0.0 0.0 0.00 0.00 0.00 68 1013.1
20260902115545 75 152 0.0 0.0 0.00 0.00 0.00 69 1013.0
20260902115025 75 159 0.0 0.0 0.00 0.00 0.00 70 1013.0
20260902114504 75 154 0.0 0.0 0.00 0.00 0.00 70 1013.0
20260902114049 75 157 0.0 0.0 0.00 0.00 0.00 71 1012.9
20260902113527 76 148 0.0 0.0 0.00 0.00 0.00 71 1012.9
20260902113013 76 148 0.0 0.0 0.00 0.00 0.00 71 1012.8
20260902112551 76 144 0.0 0.0 0.00 0.00 0.00 71 1012.8
20260902112029 76 144 0.0 0.0 0.00 0.00 0.00 71 1012.7
20260902111509 76 144 0.0 0.0 0.00 0.00 0.00 71 1012.7